ONEWEB-0023, 45136

Orbit data source: Space-Track

ONEWEB-0023, 45136 is a payload satellite owned by One Web (UK) in LEO that was launched on Thu, 06 Feb 2020 UTC via a SOYUZ-2-1B launch vehicle from the Tyuratam Missile And Space Complex (TTMTR). Payload-class satellites include a variety of spacecraft equipped with specific instruments for various scientific and technological missions. These include communications satellites like Starlink; space stations such as the ISS; scientific satellites like the Hubble; Earth observation satellites from companies like Planet Labs, Umbra, and HawkEye 360; GPS; miniature CubeSats for education and research; and military/defense satellites.

Loading next visibility...
Identifier
45136, 2020-008F
Orbit
LEO
Country
Flag of UKUK
Related business
Manufacturer
One Web
Mission
Operational Commercial Communications
Bus & Motor
ARROW, Unknown motor
Mass
148 kg wet, ~140 kg dry
Launch date (UTC)
2020-02-06 (6 years ago)
Launch vehicle
SOYUZ-2-1B
Launch site
Tyuratam Missile And Space Complex (TTMTR)
Object type
Payload
Rocket body
Debris
Shape & HBR
Trap Box + 2 Pan, 6.7 m
Radar Cross Section
3.464 m², Large (>1 m²)

Expand to show TLE details & history
Last TLE update: 7 hours ago

TLE from 7 hours ago
0 ONEWEB-0023
1 45136U 20008F   26035.13353126  .00000728  00000-0  20490-2 0  9993
2 45136  87.8747  62.7817 0001880  88.4672 271.6671 13.10374390290658
Epoch: 2026-02-04T03:12Z
TLE epoch observation values (Epoch: 2026-02-04T03:12:17.100Z)
Latitude
-0.00001°
Longitude
-119.59403°
Altitude
1,224.557 km
Speed
7.242 km/s
True Right ascension
04h 11m 07s
True Declination
0° 00' 00"
Sunlit
Object was in daylight at epoch
Visualization orbit readout
Latitude
Unknown
Longitude
Unknown
Altitude
Unknown
Speed
Unknown
Apparent Right ascension
Unknown
Apparent Declination
Unknown
Sunlit
N/A
Visualization observer readout
Local Sidereal Time
11:44:25
Azimuth
Unknown
Elevation
Unknown
Doppler factor
Unknown
Orbital elements
Apogee altitude
1,220.259 km
Perigee altitude
1,217.403 km
Semi-major axis
7,596.968 km
Eccentricity
0.00019
Inclination
87.8747°
RAAN
62.7817°
Arg. of periapsis
88.4672°
True anomaly
271.64557°
Mean anomaly
271.6671°
Eccentric anomaly
271.65633°
Mean motion
3.2778 °/min
Orbital period
109.83 mins
BSTAR
0.002049
Loading maneuver chart data...
Computing Atmospheric mass density...
Loading historical data...
Loading historical data...
Loading historical data...
Loading historical data...
Loading historical data...
Loading historical data...
Loading historical data...

Documentation

Showing up to 5 results
|